EDT,Max TemperatureF,Mean TemperatureF,Min TemperatureF,Max Dew PointF,MeanDew PointF,Min DewpointF,Max Humidity, Mean Humidity, Min Humidity, Max Sea Level PressureIn, Mean Sea Level PressureIn, Min Sea Level PressureIn, Max VisibilityMiles, Mean VisibilityMiles, Min VisibilityMiles, Max Wind SpeedMPH, Mean Wind SpeedMPH, Max Gust SpeedMPH,PrecipitationIn, CloudCover, Events, WindDirDegrees
2013-10-1,81,66,52,64,56,52,100,76,37,30.14,30.09,30.04,10,10,7,5,0,,0.00,1,,294
2013-10-2,84,70,57,65,60,53,100,75,33,30.14,30.10,30.06,10,9,2,5,1,,0.00,0,,270
2013-10-3,84,72,59,65,62,57,99,75,41,30.15,30.11,30.07,10,10,5,7,1,,0.00,2,,186
2013-10-4,85,73,61,68,64,59,100,77,41,30.16,30.11,30.07,10,9,3,6,1,,0.00,1,,194
2013-10-5,88,75,62,67,63,57,100,73,35,30.13,30.09,30.05,10,9,0,7,1,,0.00,0,Fog,165
2013-10-6,85,74,64,72,68,64,100,85,53,30.09,30.02,29.96,10,8,0,13,2,17,0.00,5,Fog-Rain,152
2013-10-7,78,73,68,74,71,57,99,92,67,29.99,29.91,29.87,10,10,7,14,5,21,0.00,7,Rain,167
2013-10-8,67,62,56,58,52,45,99,74,54,30.18,30.11,29.97,10,9,2,17,7,30,0.32,8,Rain,10
2013-10-9,65,61,57,57,53,50,99,78,71,30.16,30.11,30.06,10,9,4,12,8,21,0.03,8,Rain,353
2013-10-10,61,58,55,61,57,54,100,98,94,30.05,29.99,29.94,10,8,2,9,6,20,0.20,8,Rain,329
2013-10-11,70,65,60,64,61,59,100,91,68,29.97,29.94,29.91,10,10,3,7,1,,0.01,8,Rain,326
2013-10-12,68,64,61,66,63,60,100,92,77,30.07,30.02,29.96,10,10,5,6,1,,0.00,8,,328
2013-10-13,70,66,63,65,64,63,100,93,78,30.19,30.14,30.07,10,9,2,8,4,,0.09,8,Rain,357
2013-10-14,68,64,59,65,62,58,100,90,73,30.22,30.19,30.16,10,9,3,12,6,17,0.00,7,,11
2013-10-15,72,63,54,63,58,53,100,82,61,30.19,30.12,30.05,10,10,7,9,3,,0.00,5,,5
2013-10-16,70,66,62,64,62,59,100,88,68,30.06,30.02,29.98,10,10,5,5,1,,0.00,6,,1
2013-10-17,79,68,58,65,62,58,100,82,53,29.98,29.93,29.87,10,8,0,10,2,,0.00,5,Fog,215
2013-10-18,70,66,61,67,55,46,99,71,51,30.06,29.98,29.90,10,9,1,8,2,,0.00,8,Rain,29
2013-10-19,70,65,60,67,63,57,100,94,80,29.99,29.92,29.85,10,8,1,5,1,,0.33,7,Rain,260
2013-10-20,66,57,48,60,48,38,100,72,38,30.13,30.04,29.92,10,10,5,9,2,,0.00,0,,7
2013-10-21,67,54,42,53,46,41,100,77,39,30.16,30.10,30.02,10,10,7,6,1,,0.00,0,,65
2013-10-22,64,58,52,61,57,52,100,93,77,30.03,29.93,29.83,10,9,4,5,0,,0.00,4,Rain,176
2013-10-23,68,58,48,60,47,30,100,66,27,30.02,29.79,29.70,10,8,2,12,5,24,0.00,4,,259
2013-10-24,60,49,38,43,35,29,94,62,34,30.19,30.12,30.02,10,10,7,8,1,,0.00,1,,300
2013-10-25,57,47,37,38,32,24,95,56,28,30.38,30.29,30.19,10,10,7,9,2,,0.00,3,,344
2013-10-26,60,46,31,42,33,27,99,69,29,30.38,30.24,30.11,10,10,7,10,2,16,0.00,0,,218
2013-10-27,68,55,42,47,41,36,95,67,34,30.14,30.10,30.06,10,10,10,7,1,,0.00,1,,214
2013-10-28,63,54,44,56,50,44,100,87,65,30.28,30.22,30.14,10,9,3,4,0,,0.00,4,Rain,317
2013-10-29,74,61,48,56,52,48,100,78,43,30.34,30.29,30.26,10,8,0,6,0,,0.00,4,Fog,43
2013-10-30,76,64,52,60,55,52,100,80,44,30.32,30.26,30.18,10,8,0,8,1,,0.00,4,Fog,191
2013-10-31,76,66,55,64,57,50,100,78,40,30.22,30.11,29.97,10,8,3,14,3,20,0.00,1,,179